SCP
0 0 0 0 0 0 0 0 0 0 0 0 0 0 0 0 0 0 0 0 0 0 0 0 0 0 0 0 0 0 0 0 0 0 0 0 0 0 0 0 0 0 0 0 0 0 0 0 0 0 -0 -0 -0 -0
0 0 0 0 0 0 0 0 0 0 0 0 0 0 0 0 0 0 0 0 0 0 0 0 0 0 0 0 0 0 0 0 0 0 0 0 0 0 0 0 0 -0 0 0 -0 0 0 0 0 0 -0 -0 -0 -0
0 0 0 0 0 0 0 0 0 0 0 0 0 0 0 0 0 0 0 0 0 0 0 0 0 0 0 0 0 0 0 0 0 0 0 0 0 0 0 -0 -0 -0 0 0 0 0 0 0 0 0 -0 -0 -0 -0
0 0 0 0 0 0 0 0 0 0 0 0 0 0 0 0 0 0 0 0 0 0 0 0 0 0 0 0 0 0 0 0 0 0 0 0 0 0 0 0 0 0 0 0 0 0 -0 -0 0 0 0 -0 -0 0
0 0 0 0 0 0 0 0 0 0 0 0 0 0 0 0 0 0 0 0 0 0 0 0 0 0 0 0 0 0 0 0 0 0 0 0 0 0 0 0 -0 -0 0 0 0 -0 -0 -0 -0 0 -0 0 0 0
0 0 0 0 0 0 0 0 0 0 0 0 0 0 0 0 0 0 0 0 0 0 0 0 0 0 0 0 0 0 0 0 0 0 0 -0 -0 0 -0 0 0 0 0 0 -0 -0 -0 0 0 0 0 0 0 0
0 0 0 0 0 0 0 0 0 0 0 0 0 0 0 0 0 0 0 0 0 0 0 0 0 0 0 0 0 0 0 0 0 0 0 0 0 -0 0 0 0 0 0 0 0 0 0 0 0 0 0 0 0 0
0 0 0 0 0 0 0 0 0 0 0 0 0 0 0 0 0 0 0 0 0 0 0 0 0 0 0 0 0 0 0 0 0 0 0 0 0 0 0 0 0 0 -0 0 0 -0 0 -0 0 0 0 0 0 0
0 0 0 0 0 0 0 0 0 0 0 0 0 0 0 0 0 0 0 0 0 0 0 0 0 0 0 0 0 0 0 0 0 0 0 0 0 0 0 0 0 0 0 0 0 0 0 0 0 0 0 0 0 0
0 0 0 0 0 0 0 0 0 0 0 0 0 0 0 0 0 0 0 0 0 0 0 0 0 0 0 0 0 0 0 0 0 0 0 0 0 0 0 0 0 0 0 0 0 0 0 0 0 0 0 0 0 0
0 0 0 0 0 0 0 0 0 0 0 0 0 0 0 0 0 0 0 0 0 0 0 0 0 0 0 0 0 0 0 0 0 0 0 0 0 0 0 0 0 0 0 0 0 0 0 0 0 -0 0 0 0 0
0 0 0 0 0 0 0 0 0 0 0 0 0 0 0 0 0 0 0 0 0 0 0 0 0 0 0 0 0 0 0 0 0 0 0 0 0 0 0 0 0 0 0 0 0 0 0 0 -0 -0 -0 0 0 0
0 0 0 0 0 0 0 0 0 0 0 0 0 0 0 0 0 0 0 0 0 0 0 0 0 0 0 0 0 0 0 0 0 0 0 0 0 0 0 0 0 0 0 0 0 0 0 0 0 0 -0 0 0 0
0 0 0 0 0 0 0 0 0 0 0 0 0 0 0 0 0 0 0 0 0 0 0 0 0 0 0 0 0 0 0 0 0 0 0 0 0 0 0 0 0 0 0 0 0 0 0 0 0 0 0 0 0 0
0 0 0 0 0 0 0 0 0 0 0 0 0 0 0 0 0 0 0 0 0 0 0 0 0 0 0 0 0 0 0 0 0 0 0 0 0 0 0 0 0 0 0 0 0 0 0 0 0 0 0 0 0 0
0 0 0 0 0 0 0 0 0 0 0 0 0 0 0 0 0 0 0 0 0 0 0 0 0 0 0 0 0 0 0 0 0 0 0 0 0 0 0 0 0 0 -0 0 0 0 0 0 0 0 0 0 0 0
0 0 0 0 0 0 0 0 0 0 0 0 0 0 0 0 0 0 0 0 0 0 0 0 0 0 0 0 0 0 0 0 0 0 0 0 0 0 0 0 0 0 0 0 0 0 0 0 0 0 0 0 0 0
0 0 0 0 0 0 0 0 0 0 0 0 0 0 0 0 0 0 0 0 0 0 0 0 0 0 -0 -0 -0 -0 0 -0 0 0 0 0 0 0 0 0 0 0 0 0 0 0 0 0 0 0 0 0 0 0
0 0 0 0 0 0 0 0 0 0 0 0 0 0 0 0 0 0 0 0 0 0 0 0 0 0 -0 -0 0 0 0 0 0 0 0 0 0 0 0 0 0 0 0 0 0 0 0 0 0 0 0 0 0 0
0 0 0 0 0 0 0 0 0 0 0 0 0 0 0 0 0 0 0 0 0 0 0 0 0 -0 -0 0 0 0 -0 0 0 0 0 0 0 0 0 0 0 0 0 0 0 0 0 0 0 0 0 0 0 0
0 0 0 0 0 0 0 0 0 0 0 0 0 0 0 0 0 0 0 0 0 0 0 0 0 0 0 0 -0 -0 0 0 0 0 0 0 0 0 0 0 0 0 0 0 0 0 0 0 0 0 0 0 0 0
0 0 0 0 0 0 0 0 0 0 0 0 0 0 0 0 0 0 0 0 0 0 0 0 0 0 0 0 0 0 0 0 0 0 0 0 0 0 0 0 0 0 0 0 0 0 0 0 0 0 0 0 0 0
0 0 0 0 0 0 0 0 0 0 0 0 0 0 0 0 0 0 0 0 0 0 0 0 0 0 0 0 0 0 0 0 0 0 0 0 0 0 0 0 0 0 0 0 0 0 0 0 0 0 0 0 0 0
0 0 0 0 0 0 0 0 0 0 0 0 0 0 0 0 0 0 0 -0 -0 -0 -0 0 0 0 0 0 0 0 0 0 0 0 0 0 0 0 0 0 0 0 0 0 0 0 0 0 0 0 0 0 0 0
0 0 0 0 0 0 0 0 0 0 0 0 0 0 0 0 0 0 -0 -0 -0 -0 0 0 0 0 0 0 0 0 0 0 0 0 0 0 0 0 0 0 0 0 0 0 0 0 0 0 0 0 0 0 0 0
0 0 0 0 0 0 0 0 0 0 0 0 0 -0 0 0 0 -0 -0 -0 -0 0 0 0 0 0 0 0 0 0 0 0 0 0 0 0 0 0 0 0 0 0 0 0 0 0 0 0 0 0 0 0 -0 -0
0 0 0 0 0 0 0 0 0 0 0 0 -0 0 0 -0 -0 -0 0 0 0 0 0 0 0 0 0 0 0 0 0 0 0 0 0 0 0 0 0 0 0 0 0 0 0 0 -0 -0 -0 -0 -0 -0 0 0
0 0 0 0 0 0 0 0 0 0 0 -0 -0 -0 -0 -0 -0 0 0 0 -0 0 0 0 0 0 0 0 0 0 0 0 0 0 0 0 0 0 0 0 0 0 0 -0 -0 -0 -0 -0 0 0 0 0 0 0
0 0 0 0 0 0 0 0 -0 -0 0 0 0 0 -0 0 0 0 -0 0 0 0 0 0 0 0 0 0 0 0 0 0 0 0 0 0 0 0 0 0 -0 -0 -0 0 -0 0 0 0 0 0 0 0 0 0
0 0 0 0 0 0 -0 -0 -0 0 0 0 0 0 0 0 0 0 0 0 0 0 0 0 0 0 0 0 0 0 0 0 0 0 0 0 0 -0 -0 -0 -0 -0 0 0 0 0 0 0 0 0 0 0 0 0
0 0 0 0 0 0 0 0 0 0 0 0 0 0 0 0 0 0 0 0 0 0 0 0 0 0 0 0 0 0 0 0 0 0 -0 -0 -0 0 0 0 0 0 0 0 0 0 0 0 0 0 0 0 0 0
0 0 0 -0 -0 0 0 0 0 0 0 0 0 0 0 0 0 0 0 0 0 0 -0 0 0 0 0 -0 -0 -0 -0 -0 0 0 0 0 0 0 0 0 0 0 0 0 0 0 0 0 0 0 0 0 0 0
0 0 0 -0 -0 0 0 0 0 0 0 0 0 0 0 0 0 0 -0 -0 -0 -0 -0 -0 -0 -0 -0 0 0 0 0 0 0 0 0 0 0 0 0 0 0 0 0 0 0 0 0 0 0 0 0 0 0 0
Wind_Speed_500mb
81 75 71 64 62 62 60 57 54 51 50 47 34 37 36 36 37 39 54 42 49 56 71 70 54 56 45 42 22 36 21 6 4 2 4 5 3 5 6 6 7 7 6 5 5 4 13 12 8 9 10 4 8 10
79 70 73 64 61 63 67 55 50 48 48 38 38 35 37 39 39 42 55 54 58 58 64 94 90 83 75 56 48 21 18 6 10 4 2 4 6 5 3 6 1 6 6 3 12 10 8 19 12 10 11 16 15 14
74 71 66 61 70 70 61 59 56 52 50 41 34 39 39 43 42 42 57 59 58 54 50 36 40 75 68 53 45 29 25 21 16 25 5 6 11 4 4 8 5 6 6 5 1 6 10 21 22 29 25 21 15 20
74 68 66 63 72 69 59 59 59 57 42 34 36 39 44 43 47 48 58 60 54 29 19 49 43 53 48 34 37 50 63 53 39 24 13 6 5 11 5 6 7 6 8 8 8 15 17 17 14 13 12 14 9 11
74 67 67 70 78 64 57 61 55 46 33 35 36 40 43 47 51 52 63 68 58 34 8 34 66 4 29 22 20 31 45 58 35 10 9 7 9 6 5 1 12 10 11 5 6 11 13 17 22 15 24 18 15 13
71 68 64 78 68 63 59 53 49 32 32 34 35 40 49 45 43 54 28 3 6 19 9 6 17 25 27 18 35 35 29 33 31 13 7 12 15 11 5 6 5 10 11 17 10 30 37 35 31 26 29 25 18 19
67 66 71 70 65 59 53 49 34 31 32 29 36 47 50 51 49 49 19 8 9 22 9 11 11 9 26 30 14 13 13 15 21 10 12 10 10 23 4 6 8 26 24 26 16 24 19 10 13 25 21 17 26 26
71 73 73 69 63 52 47 40 33 23 23 31 41 51 59 55 21 12 28 41 36 21 9 4 8 12 8 10 9 6 6 8 10 8 5 4 7 4 5 5 23 29 38 22 19 42 42 48 45 37 29 35 31 31
75 76 74 67 54 47 41 32 22 16 22 31 44 54 21 7 7 8 15 23 43 16 7 5 5 7 10 7 10 6 4 3 8 2 1 5 4 4 1 9 23 30 26 43 53 47 31 27 31 28 27 27 29 29
85 74 70 55 47 42 35 26 15 17 20 31 33 11 5 8 27 55 8 14 12 18 17 5 7 6 11 10 7 6 3 1 3 4 15 4 5 2 7 19 24 31 33 37 46 38 46 42 40 37 30 21 21 25
82 72 63 52 44 40 27 21 14 16 23 13 8 9 25 50 14 6 8 8 10 3 12 9 17 4 12 1 5 2 3 2 3 6 2 4 5 1 18 26 29 32 32 33 37 36 30 33 41 44 36 22 18 19
78 65 54 48 44 33 24 19 17 18 13 11 21 40 20 5 3 5 3 3 2 3 1 2 5 11 10 7 2 3 3 4 8 6 5 5 5 11 27 35 35 35 36 33 26 22 21 26 29 32 27 10 12 14
64 53 52 47 39 30 26 17 19 16 6 13 6 4 4 3 5 7 4 5 5 4 1 12 6 6 6 9 4 2 1 7 1 5 5 6 4 21 32 37 36 35 36 30 19 14 22 25 24 22 18 14 14 12
57 54 48 43 37 31 23 23 15 3 4 4 2 6 5 6 5 6 7 7 3 7 20 18 8 6 5 1 2 1 2 2 3 3 7 2 15 27 31 33 35 37 35 27 16 17 21 21 18 16 13 10 10 7
57 49 43 40 36 26 24 17 12 9 9 7 6 7 9 9 9 6 2 4 4 12 14 9 8 6 4 2 3 3 3 6 8 6 1 6 21 28 32 31 31 30 28 21 16 18 19 21 21 19 19 20 22 22
44 41 42 35 30 25 22 20 15 10 8 10 9 2 7 4 7 9 13 7 7 8 16 4 2 2 8 5 3 11 5 9 2 1 3 13 20 27 29 27 26 26 23 18 15 15 18 18 20 22 22 19 18 17
42 24 32 30 28 31 29 21 14 13 12 8 9 21 17 13 15 23 18 12 7 6 3 4 4 17 2 4 6 5 6 1 4 7 9 16 22 29 25 23 23 20 17 14 13 13 15 17 18 18 14 17 16 14
25 30 31 34 49 40 27 19 14 11 12 20 7 19 26 28 22 21 21 17 12 10 8 8 7 1 7 6 5 3 1 8 9 8 15 18 16 21 20 18 19 20 20 18 17 16 15 14 13 13 14 14 14 14
24 27 34 41 34 27 17 19 14 10 25 7 20 27 23 21 29 33 31 26 20 19 6 5 3 6 7 6 5 3 4 9 11 19 19 9 12 16 15 15 16 17 17 16 15 14 14 14 13 14 15 16 15 13
37 23 23 41 33 21 13 10 15 8 8 10 17 18 15 14 22 21 22 18 31 12 4 5 9 6 7 7 6 5 8 12 15 13 4 6 11 11 8 9 11 13 15 14 14 14 14 15 16 15 15 13 11 11
34 42 52 49 29 12 11 13 13 8 7 11 9 8 10 15 14 13 14 24 16 11 6 19 15 13 11 10 11 12 12 12 10 9 12 9 7 4 7 10 10 11 11 11 13 15 16 16 15 12 11 10 10 11
36 45 34 31 8 12 7 17 8 10 7 4 5 7 8 4 7 8 17 15 12 10 13 12 14 16 16 14 13 13 12 10 8 6 4 3 6 7 7 5 7 9 12 14 15 15 14 11 10 9 10 10 11 11
32 35 16 10 6 12 4 12 8 8 2 3 2 4 5 5 6 13 7 10 9 12 13 14 15 15 16 17 14 10 7 6 4 3 3 4 5 3 4 8 12 14 15 15 13 11 9 9 10 11 12 12 16 17
36 21 12 15 12 7 10 5 7 5 2 3 4 6 6 5 9 2 6 5 8 12 8 7 10 10 13 16 13 7 6 4 4 5 6 4 2 4 9 12 14 14 12 10 8 9 11 12 12 13 17 19 20 18
13 9 9 4 7 8 6 2 4 4 7 6 4 7 4 6 1 4 6 5 9 11 8 5 8 9 13 14 12 9 7 5 5 8 8 5 5 10 11 10 8 7 6 8 10 12 13 14 16 16 18 19 17 14
8 9 10 11 3 9 10 10 9 13 7 5 10 2 3 3 1 9 4 4 4 9 8 6 7 9 11 9 7 6 4 4 7 10 11 11 8 8 8 5 2 4 8 12 14 14 14 15 16 16 13 12 12 14
7 8 9 10 9 13 5 3 6 5 8 9 5 4 4 4 8 4 2 4 2 4 5 5 6 7 10 9 7 6 4 2 4 9 10 8 7 8 5 0 4 10 14 16 15 14 15 15 14 13 11 12 13 15
7 17 13 21 8 6 8 5 8 10 6 8 9 6 8 8 4 1 2 2 2 2 3 4 6 7 9 10 10 6 4 5 6 4 6 10 6 3 1 5 9 16 19 18 17 18 16 14 12 12 14 15 15 16
7 21 18 5 6 3 4 7 7 6 10 10 5 4 3 2 3 1 1 1 3 5 6 7 7 7 4 3 3 4 5 6 5 7 6 6 5 6 11 17 22 23 22 20 16 16 15 13 14 15 15 14 15 17
9 20 10 5 8 6 4 5 8 10 9 8 6 5 4 3 4 5 5 5 6 6 6 5 4 2 1 2 3 3 3 6 10 10 11 11 15 20 24 26 26 25 23 21 17 15 16 17 17 16 14 14 16 18
21 8 9 7 4 4 9 13 14 12 9 6 6 5 6 7 6 7 5 3 2 3 2 2 4 3 1 3 8 9 12 15 16 16 18 20 24 27 29 28 26 23 21 20 18 17 17 17 17 16 15 16 16 18
8 5 7 6 3 15 17 7 6 5 6 5 5 6 6 5 5 4 5 5 2 1 4 4 3 5 6 11 14 15 17 18 19 21 24 27 29 29 28 26 22 20 19 19 20 20 20 18 16 16 15 15 17 18
9 8 9 12 10 9 11 10 6 6 4 3 3 4 3 3 3 4 1 7 3 2 3 7 11 14 18 20 21 21 22 23 24 26 28 29 29 28 25 23 21 20 21 21 23 23 21 18 16 15 15 17 18 18
Wind_Direction_500mb
264 265 255 254 246 254 247 259 265 277 284 292 287 288 294 295 297 297 295 296 293 281 282 275 282 281 282 282 293 308 320 308 19 11 141 299 317 290 327 275 212 188 151 197 105 141 279 172 132 152 216 284 287 273
258 254 251 250 248 242 238 256 265 274 280 277 282 284 290 295 298 295 290 298 297 273 272 288 289 285 284 282 272 258 235 221 241 260 262 286 307 294 274 288 50 286 202 198 192 215 238 202 240 232 282 303 296 283
251 251 246 250 246 248 249 268 268 270 270 277 282 284 293 294 297 294 292 296 302 290 292 271 284 301 294 285 282 249 261 231 216 218 235 234 250 201 257 250 253 250 171 234 87 272 233 249 241 268 296 294 298 288
247 244 244 246 234 247 259 264 264 262 271 271 280 288 295 296 298 297 293 291 289 279 286 295 309 301 308 292 266 252 260 254 254 244 250 242 191 218 242 262 251 252 159 224 250 285 286 284 262 246 305 313 292 282
241 235 239 236 240 248 256 262 259 265 266 273 286 292 297 298 299 297 293 298 287 249 284 298 307 285 319 309 279 258 254 250 242 231 217 225 222 222 254 277 256 191 214 223 241 295 249 267 320 287 304 291 291 256
231 232 232 234 244 246 256 257 259 256 265 281 292 296 300 303 303 306 314 262 197 173 267 298 303 295 305 302 305 289 260 248 225 210 219 236 219 176 255 230 293 323 303 311 274 297 296 291 297 302 294 286 301 274
223 224 228 234 242 247 250 251 244 250 273 287 293 298 303 299 291 276 249 198 232 324 307 312 304 268 304 315 307 283 246 227 212 219 220 225 215 199 196 234 350 349 333 326 319 336 305 319 310 309 300 279 293 278
215 213 222 232 235 239 241 239 242 260 282 292 299 305 303 298 285 253 240 234 254 254 209 240 274 318 314 305 303 286 258 240 207 248 287 20 294 274 242 316 340 338 333 322 311 321 306 297 297 290 290 277 275 264
205 217 223 223 225 229 227 227 233 255 278 295 311 312 306 159 153 135 173 250 270 232 224 184 189 270 312 292 286 297 303 324 316 54 358 353 332 221 333 320 336 339 331 311 315 317 313 316 315 311 294 287 278 269
204 212 218 214 216 212 207 219 205 252 285 306 321 312 244 185 298 302 252 171 155 198 220 248 212 274 304 345 308 331 10 277 311 270 317 62 265 168 29 357 335 328 326 320 317 321 325 329 334 326 306 288 278 270
207 206 206 206 201 195 202 177 217 255 297 329 313 253 289 302 298 223 208 191 153 150 211 240 209 255 292 144 248 258 240 272 353 269 95 325 299 284 345 341 340 336 328 320 303 302 304 308 318 324 322 272 283 276
198 196 194 184 186 184 171 176 229 260 289 309 294 285 297 292 252 87 252 287 170 129 11 94 322 269 274 252 184 264 216 47 249 325 66 298 251 353 343 343 347 340 333 330 316 314 314 314 315 319 330 305 293 302
187 185 175 174 175 173 168 193 232 260 303 300 277 253 312 266 35 128 235 314 28 323 74 338 314 264 251 241 255 18 254 229 8 38 234 231 314 343 344 342 349 350 347 340 336 336 335 331 328 331 330 312 290 289
169 165 170 173 173 167 183 214 230 200 119 207 184 295 162 295 227 185 188 182 219 263 306 308 255 221 240 326 179 149 235 35 347 332 236 250 333 340 348 348 346 355 359 1 8 359 355 1 8 11 19 32 58 78
161 167 169 168 165 186 204 182 176 164 152 203 159 233 217 244 249 211 266 285 268 301 313 294 261 242 286 270 188 86 359 261 214 231 217 342 344 343 348 350 353 359 3 10 14 14 22 29 36 52 70 82 90 93
154 155 167 168 174 175 172 176 178 174 188 210 227 194 197 58 270 230 246 279 322 324 318 206 222 17 260 188 145 220 175 230 225 221 311 336 346 350 350 355 1 1 4 10 16 24 36 47 54 65 70 75 78 79
161 170 175 181 191 175 175 181 170 185 198 218 250 227 219 260 240 242 251 265 282 324 246 129 208 220 299 227 246 201 215 277 311 314 319 329 335 344 352 3 8 14 18 23 33 42 48 56 55 54 56 54 47 37
179 184 204 184 164 167 174 175 177 195 217 221 207 237 232 248 250 245 256 266 242 205 190 223 313 271 226 213 246 136 328 305 309 293 311 314 318 339 352 11 22 32 37 43 55 55 48 51 42 34 25 16 5 357
199 182 168 172 176 172 178 184 187 206 223 228 237 253 257 259 265 269 270 267 232 201 227 222 211 217 236 215 187 176 278 324 309 314 323 313 332 350 6 17 31 38 42 43 45 41 34 27 16 4 355 350 352 359
205 194 196 190 191 173 162 178 188 223 210 225 238 247 246 244 260 260 255 233 207 198 178 204 220 231 186 192 217 257 292 303 310 331 327 326 339 356 16 35 42 46 42 32 25 17 2 354 348 342 346 356 9 15
191 179 182 189 177 149 171 178 189 199 214 215 236 238 247 245 246 237 215 199 187 214 226 224 229 222 228 247 256 266 284 299 292 293 300 315 317 19 48 45 38 35 17 2 353 346 343 341 343 355 14 22 19 16
178 181 162 170 143 182 192 188 182 179 202 223 214 231 265 286 232 208 177 188 223 217 209 212 219 228 236 255 254 257 275 297 291 292 321 39 84 83 61 29 8 349 340 340 340 342 349 359 17 29 32 28 32 41
188 187 187 165 150 189 200 177 173 195 132 254 192 354 273 239 206 174 244 228 236 221 223 233 240 242 242 237 238 249 270 293 268 209 143 126 94 54 342 345 344 342 341 342 348 3 24 44 53 48 49 58 68 71
162 156 155 190 191 160 152 139 171 153 113 47 109 278 267 216 180 203 249 245 213 187 203 229 225 233 214 207 217 245 268 264 214 177 164 138 127 329 337 347 342 342 354 10 34 57 68 68 63 72 78 77 79 77
130 173 178 145 155 115 101 65 14 94 218 216 168 288 259 184 185 244 232 253 198 200 216 250 227 215 215 222 233 237 232 229 203 170 160 166 322 348 353 345 330 352 33 65 78 86 82 79 85 88 88 86 83 73
183 191 166 182 159 149 177 151 193 208 172 192 227 246 160 106 209 248 232 190 203 205 222 243 228 213 199 193 199 201 219 226 208 207 220 247 315 343 327 312 3 71 102 101 94 92 96 96 90 89 87 84 75 68
145 188 162 159 157 138 100 124 152 139 177 202 204 147 120 208 242 253 223 204 219 215 260 260 232 200 190 193 182 186 207 236 258 244 235 237 278 298 309 360 117 122 117 112 107 105 100 98 100 92 77 70 73 73
148 160 162 168 141 168 137 149 170 200 203 172 130 182 196 203 246 288 225 235 263 239 207 190 173 169 178 186 194 219 274 313 317 242 221 211 238 300 170 148 140 135 132 123 113 108 106 104 96 82 79 82 78 68
120 143 132 88 111 126 177 179 202 159 156 165 165 196 223 219 305 334 177 190 150 156 161 153 152 163 169 180 224 252 259 289 244 184 180 170 154 115 126 133 137 134 125 117 118 115 107 96 90 94 94 85 74 63
145 150 101 95 140 192 162 159 156 155 160 156 140 129 123 105 78 108 121 140 154 156 147 138 116 104 3 298 247 200 175 142 138 138 135 131 126 127 129 130 129 126 124 121 114 109 107 106 104 99 89 76 64 53
140 125 92 79 102 125 143 134 128 123 122 141 148 145 143 140 114 78 74 104 110 94 100 208 244 267 288 154 157 143 129 127 125 125 126 126 127 127 128 130 129 127 124 119 115 113 114 112 107 95 79 66 55 47
130 114 128 117 131 146 140 137 132 113 129 137 137 152 158 163 165 155 47 43 54 291 261 247 202 166 152 145 139 134 126 124 121 122 124 125 128 130 130 129 129 129 126 121 118 118 113 107 98 83 69 58 49 40
115 109 98 116 129 170 172 153 157 130 109 115 126 143 139 153 138 167 63 5 322 256 154 138 135 130 126 124 123 122 119 118 117 120 125 129 131 130 129 129 128 125 119 119 119 116 111 101 89 77 62 53 46 43
Wind_Speed_850mb
81 75 71 64 62 62 60 57 54 51 50 47 34 37 36 36 37 39 54 42 49 56 71 70 54 56 45 42 22 36 21 6 4 2 4 5 3 5 6 6 7 7 6 5 5 4 13 12 8 9 10 4 8 10
79 70 73 64 61 63 67 55 50 48 48 38 38 35 37 39 39 42 55 54 58 58 64 94 90 83 75 56 48 21 18 6 10 4 2 4 6 5 3 6 1 6 6 3 12 10 8 19 12 10 11 16 15 14
74 71 66 61 70 70 61 59 56 52 50 41 34 39 39 43 42 42 57 59 58 54 50 36 40 75 68 53 45 29 25 21 16 25 5 6 11 4 4 8 5 6 6 5 1 6 10 21 22 29 25 21 15 20
74 68 66 63 72 69 59 59 59 57 42 34 36 39 44 43 47 48 58 60 54 29 19 49 43 53 48 34 37 50 63 53 39 24 13 6 5 11 5 6 7 6 8 8 8 15 17 17 14 13 12 14 9 11
74 67 67 70 78 64 57 61 55 46 33 35 36 40 43 47 51 52 63 68 58 34 8 34 66 4 29 22 20 31 45 58 35 10 9 7 9 6 5 1 12 10 11 5 6 11 13 17 22 15 24 18 15 13
71 68 64 78 68 63 59 53 49 32 32 34 35 40 49 45 43 54 28 3 6 19 9 6 17 25 27 18 35 35 29 33 31 13 7 12 15 11 5 6 5 10 11 17 10 30 37 35 31 26 29 25 18 19
67 66 71 70 65 59 53 49 34 31 32 29 36 47 50 51 49 49 19 8 9 22 9 11 11 9 26 30 14 13 13 15 21 10 12 10 10 23 4 6 8 26 24 26 16 24 19 10 13 25 21 17 26 26
71 73 73 69 63 52 47 40 33 23 23 31 41 51 59 55 21 12 28 41 36 21 9 4 8 12 8 10 9 6 6 8 10 8 5 4 7 4 5 5 23 29 38 22 19 42 42 48 45 37 29 35 31 31
75 76 74 67 54 47 41 32 22 16 22 31 44 54 21 7 7 8 15 23 43 16 7 5 5 7 10 7 10 6 4 3 8 2 1 5 4 4 1 9 23 30 26 43 53 47 31 27 31 28 27 27 29 29
85 74 70 55 47 42 35 26 15 17 20 31 33 11 5 8 27 55 8 14 12 18 17 5 7 6 11 10 7 6 3 1 3 4 15 4 5 2 7 19 24 31 33 37 46 38 46 42 40 37 30 21 21 25
82 72 63 52 44 40 27 21 14 16 23 13 8 9 25 50 14 6 8 8 10 3 12 9 17 4 12 1 5 2 3 2 3 6 2 4 5 1 18 26 29 32 32 33 37 36 30 33 41 44 36 22 18 19
78 65 54 48 44 33 24 19 17 18 13 11 21 40 20 5 3 5 3 3 2 3 1 2 5 11 10 7 2 3 3 4 8 6 5 5 5 11 27 35 35 35 36 33 26 22 21 26 29 32 27 10 12 14
64 53 52 47 39 30 26 17 19 16 6 13 6 4 4 3 5 7 4 5 5 4 1 12 6 6 6 9 4 2 1 7 1 5 5 6 4 21 32 37 36 35 36 30 19 14 22 25 24 22 18 14 14 12
57 54 48 43 37 31 23 23 15 3 4 4 2 6 5 6 5 6 7 7 3 7 20 18 8 6 5 1 2 1 2 2 3 3 7 2 15 27 31 33 35 37 35 27 16 17 21 21 18 16 13 10 10 7
57 49 43 40 36 26 24 17 12 9 9 7 6 7 9 9 9 6 2 4 4 12 14 9 8 6 4 2 3 3 3 6 8 6 1 6 21 28 32 31 31 30 28 21 16 18 19 21 21 19 19 20 22 22
44 41 42 35 30 25 22 20 15 10 8 10 9 2 7 4 7 9 13 7 7 8 16 4 2 2 8 5 3 11 5 9 2 1 3 13 20 27 29 27 26 26 23 18 15 15 18 18 20 22 22 19 18 17
42 24 32 30 28 31 29 21 14 13 12 8 9 21 17 13 15 23 18 12 7 6 3 4 4 17 2 4 6 5 6 1 4 7 9 16 22 29 25 23 23 20 17 14 13 13 15 17 18 18 14 17 16 14
25 30 31 34 49 40 27 19 14 11 12 20 7 19 26 28 22 21 21 17 12 10 8 8 7 1 7 6 5 3 1 8 9 8 15 18 16 21 20 18 19 20 20 18 17 16 15 14 13 13 14 14 14 14
24 27 34 41 34 27 17 19 14 10 25 7 20 27 23 21 29 33 31 26 20 19 6 5 3 6 7 6 5 3 4 9 11 19 19 9 12 16 15 15 16 17 17 16 15 14 14 14 13 14 15 16 15 13
37 23 23 41 33 21 13 10 15 8 8 10 17 18 15 14 22 21 22 18 31 12 4 5 9 6 7 7 6 5 8 12 15 13 4 6 11 11 8 9 11 13 15 14 14 14 14 15 16 15 15 13 11 11
34 42 52 49 29 12 11 13 13 8 7 11 9 8 10 15 14 13 14 24 16 11 6 19 15 13 11 10 11 12 12 12 10 9 12 9 7 4 7 10 10 11 11 11 13 15 16 16 15 12 11 10 10 11
36 45 34 31 8 12 7 17 8 10 7 4 5 7 8 4 7 8 17 15 12 10 13 12 14 16 16 14 13 13 12 10 8 6 4 3 6 7 7 5 7 9 12 14 15 15 14 11 10 9 10 10 11 11
32 35 16 10 6 12 4 12 8 8 2 3 2 4 5 5 6 13 7 10 9 12 13 14 15 15 16 17 14 10 7 6 4 3 3 4 5 3 4 8 12 14 15 15 13 11 9 9 10 11 12 12 16 17
36 21 12 15 12 7 10 5 7 5 2 3 4 6 6 5 9 2 6 5 8 12 8 7 10 10 13 16 13 7 6 4 4 5 6 4 2 4 9 12 14 14 12 10 8 9 11 12 12 13 17 19 20 18
13 9 9 4 7 8 6 2 4 4 7 6 4 7 4 6 1 4 6 5 9 11 8 5 8 9 13 14 12 9 7 5 5 8 8 5 5 10 11 10 8 7 6 8 10 12 13 14 16 16 18 19 17 14
8 9 10 11 3 9 10 10 9 13 7 5 10 2 3 3 1 9 4 4 4 9 8 6 7 9 11 9 7 6 4 4 7 10 11 11 8 8 8 5 2 4 8 12 14 14 14 15 16 16 13 12 12 14
7 8 9 10 9 13 5 3 6 5 8 9 5 4 4 4 8 4 2 4 2 4 5 5 6 7 10 9 7 6 4 2 4 9 10 8 7 8 5 0 4 10 14 16 15 14 15 15 14 13 11 12 13 15
7 17 13 21 8 6 8 5 8 10 6 8 9 6 8 8 4 1 2 2 2 2 3 4 6 7 9 10 10 6 4 5 6 4 6 10 6 3 1 5 9 16 19 18 17 18 16 14 12 12 14 15 15 16
7 21 18 5 6 3 4 7 7 6 10 10 5 4 3 2 3 1 1 1 3 5 6 7 7 7 4 3 3 4 5 6 5 7 6 6 5 6 11 17 22 23 22 20 16 16 15 13 14 15 15 14 15 17
9 20 10 5 8 6 4 5 8 10 9 8 6 5 4 3 4 5 5 5 6 6 6 5 4 2 1 2 3 3 3 6 10 10 11 11 15 20 24 26 26 25 23 21 17 15 16 17 17 16 14 14 16 18
21 8 9 7 4 4 9 13 14 12 9 6 6 5 6 7 6 7 5 3 2 3 2 2 4 3 1 3 8 9 12 15 16 16 18 20 24 27 29 28 26 23 21 20 18 17 17 17 17 16 15 16 16 18
8 5 7 6 3 15 17 7 6 5 6 5 5 6 6 5 5 4 5 5 2 1 4 4 3 5 6 11 14 15 17 18 19 21 24 27 29 29 28 26 22 20 19 19 20 20 20 18 16 16 15 15 17 18
9 8 9 12 10 9 11 10 6 6 4 3 3 4 3 3 3 4 1 7 3 2 3 7 11 14 18 20 21 21 22 23 24 26 28 29 29 28 25 23 21 20 21 21 23 23 21 18 16 15 15 17 18 18
Wind_Direction_850mb
264 265 255 254 246 254 247 259 265 277 284 292 287 288 294 295 297 297 295 296 293 281 282 275 282 281 282 282 293 308 320 308 19 11 141 299 317 290 327 275 212 188 151 197 105 141 279 172 132 152 216 284 287 273
258 254 251 250 248 242 238 256 265 274 280 277 282 284 290 295 298 295 290 298 297 273 272 288 289 285 284 282 272 258 235 221 241 260 262 286 307 294 274 288 50 286 202 198 192 215 238 202 240 232 282 303 296 283
251 251 246 250 246 248 249 268 268 270 270 277 282 284 293 294 297 294 292 296 302 290 292 271 284 301 294 285 282 249 261 231 216 218 235 234 250 201 257 250 253 250 171 234 87 272 233 249 241 268 296 294 298 288
247 244 244 246 234 247 259 264 264 262 271 271 280 288 295 296 298 297 293 291 289 279 286 295 309 301 308 292 266 252 260 254 254 244 250 242 191 218 242 262 251 252 159 224 250 285 286 284 262 246 305 313 292 282
241 235 239 236 240 248 256 262 259 265 266 273 286 292 297 298 299 297 293 298 287 249 284 298 307 285 319 309 279 258 254 250 242 231 217 225 222 222 254 277 256 191 214 223 241 295 249 267 320 287 304 291 291 256
231 232 232 234 244 246 256 257 259 256 265 281 292 296 300 303 303 306 314 262 197 173 267 298 303 295 305 302 305 289 260 248 225 210 219 236 219 176 255 230 293 323 303 311 274 297 296 291 297 302 294 286 301 274
223 224 228 234 242 247 250 251 244 250 273 287 293 298 303 299 291 276 249 198 232 324 307 312 304 268 304 315 307 283 246 227 212 219 220 225 215 199 196 234 350 349 333 326 319 336 305 319 310 309 300 279 293 278
215 213 222 232 235 239 241 239 242 260 282 292 299 305 303 298 285 253 240 234 254 254 209 240 274 318 314 305 303 286 258 240 207 248 287 20 294 274 242 316 340 338 333 322 311 321 306 297 297 290 290 277 275 264
205 217 223 223 225 229 227 227 233 255 278 295 311 312 306 159 153 135 173 250 270 232 224 184 189 270 312 292 286 297 303 324 316 54 358 353 332 221 333 320 336 339 331 311 315 317 313 316 315 311 294 287 278 269
204 212 218 214 216 212 207 219 205 252 285 306 321 312 244 185 298 302 252 171 155 198 220 248 212 274 304 345 308 331 10 277 311 270 317 62 265 168 29 357 335 328 326 320 317 321 325 329 334 326 306 288 278 270
207 206 206 206 201 195 202 177 217 255 297 329 313 253 289 302 298 223 208 191 153 150 211 240 209 255 292 144 248 258 240 272 353 269 95 325 299 284 345 341 340 336 328 320 303 302 304 308 318 324 322 272 283 276
198 196 194 184 186 184 171 176 229 260 289 309 294 285 297 292 252 87 252 287 170 129 11 94 322 269 274 252 184 264 216 47 249 325 66 298 251 353 343 343 347 340 333 330 316 314 314 314 315 319 330 305 293 302
187 185 175 174 175 173 168 193 232 260 303 300 277 253 312 266 35 128 235 314 28 323 74 338 314 264 251 241 255 18 254 229 8 38 234 231 314 343 344 342 349 350 347 340 336 336 335 331 328 331 330 312 290 289
169 165 170 173 173 167 183 214 230 200 119 207 184 295 162 295 227 185 188 182 219 263 306 308 255 221 240 326 179 149 235 35 347 332 236 250 333 340 348 348 346 355 359 1 8 359 355 1 8 11 19 32 58 78
161 167 169 168 165 186 204 182 176 164 152 203 159 233 217 244 249 211 266 285 268 301 313 294 261 242 286 270 188 86 359 261 214 231 217 342 344 343 348 350 353 359 3 10 14 14 22 29 36 52 70 82 90 93
154 155 167 168 174 175 172 176 178 174 188 210 227 194 197 58 270 230 246 279 322 324 318 206 222 17 260 188 145 220 175 230 225 221 311 336 346 350 350 355 1 1 4 10 16 24 36 47 54 65 70 75 78 79
161 170 175 181 191 175 175 181 170 185 198 218 250 227 219 260 240 242 251 265 282 324 246 129 208 220 299 227 246 201 215 277 311 314 319 329 335 344 352 3 8 14 18 23 33 42 48 56 55 54 56 54 47 37
179 184 204 184 164 167 174 175 177 195 217 221 207 237 232 248 250 245 256 266 242 205 190 223 313 271 226 213 246 136 328 305 309 293 311 314 318 339 352 11 22 32 37 43 55 55 48 51 42 34 25 16 5 357
199 182 168 172 176 172 178 184 187 206 223 228 237 253 257 259 265 269 270 267 232 201 227 222 211 217 236 215 187 176 278 324 309 314 323 313 332 350 6 17 31 38 42 43 45 41 34 27 16 4 355 350 352 359
205 194 196 190 191 173 162 178 188 223 210 225 238 247 246 244 260 260 255 233 207 198 178 204 220 231 186 192 217 257 292 303 310 331 327 326 339 356 16 35 42 46 42 32 25 17 2 354 348 342 346 356 9 15
191 179 182 189 177 149 171 178 189 199 214 215 236 238 247 245 246 237 215 199 187 214 226 224 229 222 228 247 256 266 284 299 292 293 300 315 317 19 48 45 38 35 17 2 353 346 343 341 343 355 14 22 19 16
178 181 162 170 143 182 192 188 182 179 202 223 214 231 265 286 232 208 177 188 223 217 209 212 219 228 236 255 254 257 275 297 291 292 321 39 84 83 61 29 8 349 340 340 340 342 349 359 17 29 32 28 32 41
188 187 187 165 150 189 200 177 173 195 132 254 192 354 273 239 206 174 244 228 236 221 223 233 240 242 242 237 238 249 270 293 268 209 143 126 94 54 342 345 344 342 341 342 348 3 24 44 53 48 49 58 68 71
162 156 155 190 191 160 152 139 171 153 113 47 109 278 267 216 180 203 249 245 213 187 203 229 225 233 214 207 217 245 268 264 214 177 164 138 127 329 337 347 342 342 354 10 34 57 68 68 63 72 78 77 79 77
130 173 178 145 155 115 101 65 14 94 218 216 168 288 259 184 185 244 232 253 198 200 216 250 227 215 215 222 233 237 232 229 203 170 160 166 322 348 353 345 330 352 33 65 78 86 82 79 85 88 88 86 83 73
183 191 166 182 159 149 177 151 193 208 172 192 227 246 160 106 209 248 232 190 203 205 222 243 228 213 199 193 199 201 219 226 208 207 220 247 315 343 327 312 3 71 102 101 94 92 96 96 90 89 87 84 75 68
145 188 162 159 157 138 100 124 152 139 177 202 204 147 120 208 242 253 223 204 219 215 260 260 232 200 190 193 182 186 207 236 258 244 235 237 278 298 309 360 117 122 117 112 107 105 100 98 100 92 77 70 73 73
148 160 162 168 141 168 137 149 170 200 203 172 130 182 196 203 246 288 225 235 263 239 207 190 173 169 178 186 194 219 274 313 317 242 221 211 238 300 170 148 140 135 132 123 113 108 106 104 96 82 79 82 78 68
120 143 132 88 111 126 177 179 202 159 156 165 165 196 223 219 305 334 177 190 150 156 161 153 152 163 169 180 224 252 259 289 244 184 180 170 154 115 126 133 137 134 125 117 118 115 107 96 90 94 94 85 74 63
145 150 101 95 140 192 162 159 156 155 160 156 140 129 123 105 78 108 121 140 154 156 147 138 116 104 3 298 247 200 175 142 138 138 135 131 126 127 129 130 129 126 124 121 114 109 107 106 104 99 89 76 64 53
140 125 92 79 102 125 143 134 128 123 122 141 148 145 143 140 114 78 74 104 110 94 100 208 244 267 288 154 157 143 129 127 125 125 126 126 127 127 128 130 129 127 124 119 115 113 114 112 107 95 79 66 55 47
130 114 128 117 131 146 140 137 132 113 129 137 137 152 158 163 165 155 47 43 54 291 261 247 202 166 152 145 139 134 126 124 121 122 124 125 128 130 130 129 129 129 126 121 118 118 113 107 98 83 69 58 49 40
115 109 98 116 129 170 172 153 157 130 109 115 126 143 139 153 138 167 63 5 322 256 154 138 135 130 126 124 123 122 119 118 117 120 125 129 131 130 129 129 128 125 119 119 119 116 111 101 89 77 62 53 46 43